When you browse on this site, cookies collect data to enhance your experience and personalize the content and advertising you see.
Visit our Privacy Policy to learn more. By continuing to use the site, you agree to this use of cookies and data.
  • In Schweiz
  • Länderverzeichnis
  • Für 7 Tage
  • Wassertemperatur
  • Satellitenkarten
  • Wetterkarte
  • Widgets
  • user-avatar
    Anmelden

    Stündliche Wetter Recife

    Heute, 16 Januar, Mittwoch

    Zeit Temperatur Niederschläge Wind Luftdruck Luftfeuchtigkeit
    00:00 +27°C° 0.1 mm 3 m/S 759 mmHg 81%
    01:00 +27°C° 0.1 mm 3 m/S 759 mmHg 83%
    02:00 +27°C° 0.1 mm 3 m/S 759 mmHg 84%
    03:00 +27°C° 0.1 mm 3 m/S 759 mmHg 85%
    04:00 +27°C° 0 mm 2 m/S 759 mmHg 86%
    05:00 +27°C° 0.1 mm 2 m/S 759 mmHg 86%
    06:00 +27°C° 0.1 mm 2 m/S 759 mmHg 85%
    07:00 +27°C° 0.1 mm 2 m/S 759 mmHg 85%
    08:00 +28°C° 0 mm 2 m/S 759 mmHg 78%
    09:00 +30°C° 0 mm 2 m/S 759 mmHg 71%
    10:00 +31°C° 0 mm 3 m/S 759 mmHg 64%
    11:00 +33°C° 0 mm 3 m/S 759 mmHg 60%
    12:00 +34°C° 0 mm 4 m/S 759 mmHg 57%
    13:00 +35°C° 0 mm 4 m/S 759 mmHg 54%
    14:00 +35°C° 0 mm 4 m/S 759 mmHg 55%
    15:00 +34°C° 0 mm 5 m/S 759 mmHg 56%
    16:00 +34°C° 0 mm 5 m/S 758 mmHg 57%
    17:00 +33°C° 0 mm 4 m/S 758 mmHg 62%
    18:00 +30°C° 0 mm 4 m/S 758 mmHg 67%
    19:00 +29°C° 0 mm 4 m/S 758 mmHg 72%
    20:00 +29°C° 0 mm 3 m/S 759 mmHg 74%
    21:00 +29°C° 0 mm 3 m/S 759 mmHg 76%
    22:00 +28°C° 0 mm 3 m/S 759 mmHg 78%
    23:00 +28°C° 0 mm 2 m/S 759 mmHg 79%

    Morgen, 17 Januar, Donnerstag

    Zeit Temperatur Niederschläge Wind Luftdruck Luftfeuchtigkeit
    00:00 +28°C° 0 mm 2 m/S 759 mmHg 80%
    01:00 +27°C° 0 mm 2 m/S 759 mmHg 81%
    02:00 +27°C° 0 mm 2 m/S 758 mmHg 82%
    03:00 +27°C° 0 mm 2 m/S 758 mmHg 83%
    04:00 +27°C° 0 mm 2 m/S 758 mmHg 84%
    05:00 +27°C° 0.1 mm 2 m/S 758 mmHg 83%
    06:00 +27°C° 0.1 mm 2 m/S 758 mmHg 83%
    07:00 +27°C° 0.1 mm 2 m/S 758 mmHg 82%
    08:00 +29°C° 0.1 mm 2 m/S 759 mmHg 75%
    09:00 +30°C° 0.1 mm 2 m/S 759 mmHg 68%
    10:00 +33°C° 0.1 mm 3 m/S 759 mmHg 61%
    11:00 +33°C° 0.2 mm 3 m/S 759 mmHg 60%
    12:00 +34°C° 0.2 mm 4 m/S 759 mmHg 58%
    13:00 +35°C° 0.2 mm 5 m/S 758 mmHg 56%
    14:00 +34°C° 0.1 mm 5 m/S 758 mmHg 58%
    15:00 +34°C° 0.1 mm 5 m/S 757 mmHg 60%
    16:00 +33°C° 0.1 mm 5 m/S 757 mmHg 62%
    17:00 +32°C° 0.1 mm 5 m/S 757 mmHg 67%
    18:00 +30°C° 0.1 mm 5 m/S 757 mmHg 72%
    19:00 +29°C° 0.1 mm 4 m/S 757 mmHg 77%
    20:00 +29°C° 0.2 mm 4 m/S 758 mmHg 78%
    21:00 +28°C° 0.2 mm 4 m/S 758 mmHg 80%
    22:00 +28°C° 0.2 mm 4 m/S 759 mmHg 82%
    23:00 +28°C° 0.3 mm 4 m/S 759 mmHg 82%

    übermorgen, 18 Januar, Freitag

    Zeit Temperatur Niederschläge Wind Luftdruck Luftfeuchtigkeit
    00:00 +28°C° 0.3 mm 4 m/S 758 mmHg 83%
    01:00 +28°C° 0.3 mm 3 m/S 758 mmHg 84%
    02:00 +27°C° 0.2 mm 3 m/S 758 mmHg 84%
    03:00 +27°C° 0.2 mm 3 m/S 757 mmHg 85%
    04:00 +27°C° 0.2 mm 3 m/S 757 mmHg 86%
    05:00 +27°C° 0.2 mm 2 m/S 757 mmHg 85%
    06:00 +27°C° 0.2 mm 2 m/S 758 mmHg 84%
    07:00 +28°C° 0.2 mm 2 m/S 758 mmHg 83%
    08:00 +29°C° 0.4 mm 2 m/S 758 mmHg 77%
    09:00 +30°C° 0.4 mm 3 m/S 759 mmHg 71%
    10:00 +31°C° 0.4 mm 3 m/S 759 mmHg 64%
    11:00 +33°C° 0.2 mm 4 m/S 759 mmHg 61%
    12:00 +34°C° 0.2 mm 4 m/S 758 mmHg 58%
    13:00 +34°C° 0.2 mm 4 m/S 758 mmHg 55%
    14:00 +34°C° 0 mm 5 m/S 757 mmHg 57%
    15:00 +34°C° 0 mm 5 m/S 757 mmHg 58%
    16:00 +33°C° 0 mm 5 m/S 756 mmHg 60%
    17:00 +32°C° 0.1 mm 5 m/S 757 mmHg 66%
    18:00 +30°C° 0.1 mm 5 m/S 757 mmHg 71%
    19:00 +29°C° 0.1 mm 4 m/S 757 mmHg 76%
    20:00 +29°C° 0.4 mm 4 m/S 758 mmHg 78%
    21:00 +28°C° 0.4 mm 4 m/S 758 mmHg 80%
    22:00 +28°C° 0.4 mm 3 m/S 759 mmHg 82%
    23:00 +28°C° 0.3 mm 3 m/S 758 mmHg 83%

    19 Januar, Samstag

    Zeit Temperatur Niederschläge Wind Luftdruck Luftfeuchtigkeit
    00:00 +28°C° 0.3 mm 3 m/S 758 mmHg 84%
    01:00 +27°C° 0.3 mm 3 m/S 758 mmHg 85%
    02:00 +27°C° 0.7 mm 3 m/S 757 mmHg 86%
    03:00 +27°C° 0.7 mm 2 m/S 757 mmHg 86%
    04:00 +27°C° 0.7 mm 2 m/S 757 mmHg 87%
    05:00 +27°C° 0.7 mm 2 m/S 757 mmHg 85%
    06:00 +27°C° 0.7 mm 2 m/S 757 mmHg 84%
    07:00 +28°C° 0.7 mm 2 m/S 758 mmHg 83%
    08:00 +29°C° 0.4 mm 2 m/S 758 mmHg 77%
    09:00 +30°C° 0.4 mm 3 m/S 759 mmHg 70%
    10:00 +31°C° 0.4 mm 3 m/S 759 mmHg 64%
    11:00 +33°C° 0.1 mm 3 m/S 759 mmHg 61%
    12:00 +34°C° 0.1 mm 4 m/S 758 mmHg 58%
    13:00 +34°C° 0.1 mm 4 m/S 758 mmHg 55%
    14:00 +34°C° 0 mm 4 m/S 757 mmHg 56%
    15:00 +34°C° 0 mm 4 m/S 757 mmHg 57%
    16:00 +33°C° 0 mm 4 m/S 756 mmHg 58%
    17:00 +32°C° 0 mm 4 m/S 757 mmHg 63%
    18:00 +30°C° 0 mm 3 m/S 757 mmHg 68%
    19:00 +29°C° 0 mm 3 m/S 757 mmHg 73%
    20:00 +29°C° 0.3 mm 3 m/S 758 mmHg 75%
    21:00 +29°C° 0.3 mm 3 m/S 758 mmHg 77%
    22:00 +28°C° 0.3 mm 2 m/S 759 mmHg 79%
    23:00 +28°C° 0.6 mm 2 m/S 759 mmHg 80%

    20 Januar, Sonntag

    Zeit Temperatur Niederschläge Wind Luftdruck Luftfeuchtigkeit
    00:00 +28°C° 0.6 mm 2 m/S 758 mmHg 81%
    01:00 +28°C° 0.6 mm 2 m/S 758 mmHg 82%
    02:00 +28°C° 0.4 mm 2 m/S 758 mmHg 83%
    03:00 +27°C° 0.4 mm 1 m/S 757 mmHg 84%
    04:00 +27°C° 0.4 mm 1 m/S 757 mmHg 84%
    05:00 +27°C° 0.3 mm 1 m/S 758 mmHg 84%
    06:00 +28°C° 0.3 mm 1 m/S 758 mmHg 83%
    07:00 +28°C° 0.3 mm 1 m/S 759 mmHg 82%
    08:00 +29°C° 0.1 mm 2 m/S 759 mmHg 75%
    09:00 +30°C° 0.1 mm 2 m/S 759 mmHg 68%
    10:00 +33°C° 0.1 mm 3 m/S 759 mmHg 61%
    11:00 +33°C° 0 mm 3 m/S 759 mmHg 59%
    12:00 +34°C° 0 mm 4 m/S 759 mmHg 57%
    13:00 +35°C° 0 mm 4 m/S 758 mmHg 54%
    14:00 +34°C° 0 mm 4 m/S 758 mmHg 56%
    15:00 +34°C° 0 mm 5 m/S 757 mmHg 58%
    16:00 +34°C° 0 mm 5 m/S 757 mmHg 60%
    17:00 +33°C° 0 mm 4 m/S 757 mmHg 64%
    18:00 +30°C° 0 mm 4 m/S 758 mmHg 69%
    19:00 +29°C° 0 mm 4 m/S 758 mmHg 74%
    20:00 +29°C° 0.3 mm 4 m/S 758 mmHg 76%
    21:00 +29°C° 0.3 mm 3 m/S 759 mmHg 78%
    22:00 +28°C° 0.3 mm 3 m/S 759 mmHg 80%
    23:00 +28°C° 0.8 mm 3 m/S 759 mmHg 81%

    21 Januar, Montag

    Zeit Temperatur Niederschläge Wind Luftdruck Luftfeuchtigkeit
    00:00 +28°C° 0.8 mm 3 m/S 759 mmHg 83%
    01:00 +27°C° 0.8 mm 3 m/S 758 mmHg 84%
    02:00 +27°C° 1.2 mm 3 m/S 758 mmHg 85%
    03:00 +27°C° 1.2 mm 2 m/S 758 mmHg 85%
    04:00 +27°C° 1.2 mm 2 m/S 757 mmHg 86%
    05:00 +27°C° 1.3 mm 2 m/S 758 mmHg 85%
    06:00 +27°C° 1.3 mm 2 m/S 758 mmHg 84%
    07:00 +27°C° 1.3 mm 2 m/S 758 mmHg 83%
    08:00 +29°C° 1.1 mm 3 m/S 759 mmHg 77%
    09:00 +30°C° 1.1 mm 3 m/S 759 mmHg 71%
    10:00 +31°C° 1.1 mm 3 m/S 759 mmHg 64%
    11:00 +33°C° 0.4 mm 4 m/S 759 mmHg 63%
    12:00 +33°C° 0.4 mm 4 m/S 758 mmHg 62%
    13:00 +34°C° 0.4 mm 5 m/S 758 mmHg 61%
    14:00 +34°C° 0 mm 5 m/S 758 mmHg 61%
    15:00 +33°C° 0 mm 5 m/S 757 mmHg 61%
    16:00 +33°C° 0 mm 5 m/S 757 mmHg 62%
    17:00 +32°C° 0 mm 5 m/S 757 mmHg 67%
    18:00 +30°C° 0 mm 5 m/S 757 mmHg 72%
    19:00 +29°C° 0 mm 4 m/S 758 mmHg 76%
    20:00 +29°C° 0 mm 4 m/S 758 mmHg 78%
    21:00 +28°C° 0 mm 4 m/S 759 mmHg 79%
    22:00 +28°C° 0 mm 4 m/S 759 mmHg 81%
    23:00 +28°C° 0.1 mm 4 m/S 759 mmHg 81%
    Mehr zeigen